Location: The Saddle
(36.8333°N, 80.3417°W)
Time: 06:52:02
(UTC-05:00)

Vanguard 3 - Pass Details

Date: 11 February 2026
Orbit: 507 x 3205 km, 33.3° (Epoch: 5 March)

Event Time Altitude Azimuth Distance (km) Brightness Sun altitude
Rises 20:00:54 0° 257° (WSW) 3,415 11.6 -25.2°
Reaches altitude 10° 20:03:53 10° 253° (WSW) 2,186 10.3 -25.8°
Enters shadow 20:07:36 43° 218° (SW) 821 7.3 -26.5°
